Location: Hylvaty SDH
(49.9612°N, 16.4057°E)
Time: 12:26:44
(UTC+01:00)

A-11 Canister half - Pass Details

Date: 07 October 2020
Orbit: 1526 x 1683 km, 47.3° (Epoch: 28 October)

Event Time Altitude Azimuth Distance (km) Brightness Sun altitude
Rises 04:21:59 0° 288° (WNW) 4,718 - -26.3°
Reaches altitude 10° 04:25:46 10° 275° (W) 3,752 - -25.7°
Maximum altitude 04:32:46 24° 227° (SW) 2,844 - -24.7°
Exits shadow 04:36:12 20° 199° (SSW) 3,110 10.2 -24.2°
Drops below altitude 10° 04:39:56 10° 179° (S) 3,831 10.9 -23.6°
Sets 04:43:52 0° 166° (SSE) 4,840 11.6 -23.0°
